Weather History for KLNP - March, 2013

Change the Weather History Date:

Saturday, March 9, 2013

  Actual Average Record
Temperature  
Mean Temperature 45 °F -  
Max Temperature 62 °F 47 °F 69 °F (2006)
Min Temperature 28 °F 29 °F 10 °F (2008)
Degree Days  
Heating Degree Days 20    
Moisture  
Dew Point 28 °F    
Average Humidity 54    
Maximum Humidity 93    
Minimum Humidity 24    
Precipitation  
Precipitation 0.00 in - - ()
Sea Level Pressure  
Sea Level Pressure 30.23 in    
Wind  
Wind Speed 2 mph (South)    
Max Wind Speed 8 mph    
Max Gust Speed -    
Visibility 8 miles    
Events      
Averages and records for this station are not official NWS values.
T = Trace of Precipitation, MM = Missing Value Source: NWS Daily Summary

Daily Weather History Graph

Daily Weather History Graph

Search for Another Location

Airport or City:

Trip Planner

Search our weather history database for the weather conditions in past years. The results will help you decide how hot, cold, wet, or windy it might be!

Date:

Astronomy

Mar. 09, 2013 Rise Set
Actual Time 6:49 AM EST 6:32 PM EST
Civil Twilight 6:23 AM EST 6:58 PM EST
Nautical Twilight 5:53 AM EST 7:28 PM EST
Astronomical Twilight 5:23 AM EST 7:58 PM EST
Moon 5:10 AM EST (3/9) 4:34 PM EST (3/9)
Length of Visible Light 12h 34m
Length of Day
11h 42m
Waning Crescent, 5% of the Moon is Illuminated
Mar 9
Waning Crescent
Mar 11
New
Mar 19
First Quarter
Mar 27
Full
Apr 3
Last Quarter

Hourly Weather History & Observations

Time (EST) Temp. Windchill Dew Point Humidity Pressure Visibility Wind Dir Wind Speed Gust Speed Precip Events Conditions
12:15 AM 30.2 °F - 26.6 °F 86% 30.29 in 7.0 mi Calm Calm - N/A   Clear
12:35 AM 30.2 °F - 26.6 °F 86% 30.30 in 7.0 mi Calm Calm - N/A   Clear
12:55 AM 30.2 °F - 26.6 °F 86% 30.30 in 7.0 mi Calm Calm - N/A   Clear
1:15 AM 30.2 °F - 26.6 °F 86% 30.29 in 7.0 mi Calm Calm - N/A   Clear
1:35 AM 32.0 °F - 26.6 °F 80% 30.29 in 7.0 mi Calm Calm - N/A   Clear
1:55 AM 32.0 °F - 26.6 °F 80% 30.29 in 7.0 mi Calm Calm - N/A   Clear
2:15 AM 30.2 °F - 26.6 °F 86% 30.29 in 7.0 mi Calm Calm - N/A   Clear
2:35 AM 30.2 °F - 26.6 °F 86% 30.28 in 7.0 mi Calm Calm - N/A   Clear
2:55 AM 30.2 °F - 26.6 °F 86% 30.28 in 5.0 mi Calm Calm - N/A   Clear
3:15 AM 28.4 °F - 26.6 °F 93% 30.27 in 7.0 mi Calm Calm - N/A   Clear
3:35 AM 32.0 °F - 26.6 °F 80% 30.25 in 5.0 mi Calm Calm - N/A   Haze
3:55 AM 32.0 °F - 26.6 °F 80% 30.25 in 7.0 mi Calm Calm - N/A   Clear
4:15 AM 32.0 °F - 26.6 °F 80% 30.24 in 7.0 mi Calm Calm - N/A   Clear
4:35 AM 32.0 °F - 26.6 °F 80% 30.24 in 7.0 mi Calm Calm - N/A   Clear
4:55 AM 32.0 °F - 26.6 °F 80% 30.24 in 7.0 mi Calm Calm - N/A   Clear
5:15 AM 32.0 °F - 26.6 °F 80% 30.24 in 7.0 mi Calm Calm - N/A   Clear
5:35 AM 32.0 °F - 26.6 °F 80% 30.24 in 5.0 mi Calm Calm - N/A   Haze
5:55 AM 30.2 °F - 26.6 °F 86% 30.24 in 7.0 mi Calm Calm - N/A   Clear
6:15 AM 30.2 °F - 26.6 °F 86% 30.25 in 7.0 mi Calm Calm - N/A   Clear
6:35 AM 30.2 °F - 26.6 °F 86% 30.24 in 5.0 mi Calm Calm - N/A   Haze
6:55 AM 30.2 °F - 26.6 °F 86% 30.25 in 5.0 mi Calm Calm - N/A   Haze
7:15 AM 30.2 °F - 26.6 °F 86% 30.25 in 5.0 mi Calm Calm - N/A   Clear
7:35 AM 30.2 °F - 24.8 °F 80% 30.26 in 4.0 mi Calm Calm - N/A   Haze
7:55 AM 30.2 °F 26.7 °F 28.4 °F 93% 30.27 in 2.5 mi SSW 3.5 mph - N/A   Clear
8:15 AM 32.0 °F - 28.4 °F 87% 30.27 in 2.5 mi Calm Calm - N/A   Clear
8:35 AM 35.6 °F - 32.0 °F 87% 30.27 in 2.0 mi Calm Calm - N/A   Haze
8:55 AM 37.4 °F - 32.0 °F 81% 30.27 in 2.5 mi Calm Calm - N/A   Haze
9:15 AM 44.6 °F 42.2 °F 30.2 °F 57% 30.26 in 4.0 mi ESE 4.6 mph - N/A   Haze
9:35 AM 46.4 °F 43.5 °F 28.4 °F 50% 30.26 in 3.0 mi East 5.8 mph - N/A   Haze
9:55 AM 48.2 °F - 28.4 °F 46% 30.26 in 4.0 mi SSE 5.8 mph - N/A   Haze
10:15 AM 50.0 °F - 28.4 °F 43% 30.26 in 7.0 mi ESE 6.9 mph - N/A   Clear
10:35 AM 51.8 °F - 28.4 °F 41% 30.26 in 10.0 mi SE 5.8 mph - N/A   Clear
10:55 AM 51.8 °F - 28.4 °F 41% 30.27 in 10.0 mi SE 3.5 mph - N/A   Clear
11:15 AM 53.6 °F - 30.2 °F 41% 30.27 in 10.0 mi South 3.5 mph - N/A   Clear
11:35 AM 53.6 °F - 30.2 °F 41% 30.27 in 10.0 mi SSW 6.9 mph - N/A   Clear
11:55 AM 55.4 °F - 32.0 °F 41% 30.27 in 10.0 mi SW 5.8 mph - N/A   Clear
12:15 PM 55.4 °F - 30.2 °F 38% 30.26 in 10.0 mi South 5.8 mph - N/A   Clear
12:35 PM 59.0 °F - 30.2 °F 34% 30.25 in 10.0 mi East 4.6 mph - N/A   Clear
12:55 PM 59.0 °F - 30.2 °F 34% 30.24 in 10.0 mi SE 3.5 mph - N/A   Clear
1:15 PM 57.2 °F - 28.4 °F 33% 30.23 in 10.0 mi East 5.8 mph - N/A   Mostly Cloudy
1:35 PM 59.0 °F - 26.6 °F 29% 30.23 in 10.0 mi East 4.6 mph - N/A   Mostly Cloudy
1:55 PM 60.8 °F - 26.6 °F 27% 30.22 in 10.0 mi ESE 4.6 mph - N/A   Scattered Clouds
2:15 PM 60.8 °F - 26.6 °F 27% 30.21 in 10.0 mi South 4.6 mph - N/A   Scattered Clouds
2:35 PM 62.6 °F - 28.4 °F 27% 30.21 in 10.0 mi SE 5.8 mph - N/A   Clear
2:55 PM 62.6 °F - 26.6 °F 26% 30.20 in 10.0 mi South 6.9 mph - N/A   Clear
3:15 PM 62.6 °F - 24.8 °F 24% 30.20 in 10.0 mi South 4.6 mph - N/A   Clear
3:35 PM 62.6 °F - 28.4 °F 27% 30.20 in 10.0 mi South 4.6 mph - N/A   Clear
3:55 PM 62.6 °F - 26.6 °F 26% 30.20 in 10.0 mi South 4.6 mph - N/A   Clear
4:15 PM 62.6 °F - 26.6 °F 26% 30.20 in 10.0 mi Calm Calm - N/A   Clear
4:35 PM 62.6 °F - 28.4 °F 27% 30.20 in 10.0 mi SSW 4.6 mph - N/A   Clear
4:55 PM 62.6 °F - 28.4 °F 27% 30.20 in 10.0 mi Calm Calm - N/A   Clear
5:15 PM 60.8 °F - 30.2 °F 31% 30.20 in 7.0 mi SW 4.6 mph - N/A   Clear
5:35 PM 60.8 °F - 30.2 °F 31% 30.20 in 10.0 mi WSW 3.5 mph - N/A   Clear
5:55 PM 60.8 °F - 28.4 °F 29% 30.19 in 10.0 mi Calm Calm - N/A   Clear
6:15 PM 59.0 °F - 26.6 °F 29% 30.19 in 10.0 mi South 5.8 mph - N/A   Clear
6:35 PM 55.4 °F - 24.8 °F 31% 30.19 in 10.0 mi SSE 4.6 mph - N/A   Clear
6:55 PM 53.6 °F - 23.0 °F 30% 30.19 in 10.0 mi SSE 3.5 mph - N/A   Clear
7:15 PM 51.8 °F - 23.0 °F 33% 30.19 in 7.0 mi South 4.6 mph - N/A   Clear
7:35 PM 53.6 °F - 24.8 °F 33% 30.18 in 10.0 mi South 5.8 mph - N/A   Clear
7:55 PM 53.6 °F - 24.8 °F 33% 30.18 in 10.0 mi SSE 5.8 mph - N/A   Clear
8:15 PM 53.6 °F - 26.6 °F 35% 30.19 in 10.0 mi South 6.9 mph - N/A   Clear
8:35 PM 51.8 °F - 28.4 °F 41% 30.18 in 10.0 mi South 8.1 mph - N/A   Clear
8:55 PM 53.6 °F - 28.4 °F 38% 30.19 in 10.0 mi South 8.1 mph - N/A   Clear
9:15 PM 50.0 °F - 28.4 °F 43% 30.19 in 10.0 mi South 8.1 mph - N/A   Clear
9:35 PM 50.0 °F - 28.4 °F 43% 30.20 in 7.0 mi SSW 6.9 mph - N/A   Clear
9:55 PM 50.0 °F - 30.2 °F 47% 30.20 in 10.0 mi SSW 8.1 mph - N/A   Mostly Cloudy
10:15 PM 50.0 °F - 30.2 °F 47% 30.21 in 10.0 mi South 5.8 mph - N/A   Mostly Cloudy
10:35 PM 51.8 °F - 30.2 °F 44% 30.21 in 10.0 mi South 4.6 mph - N/A   Overcast
10:55 PM 53.6 °F - 28.4 °F 38% 30.20 in 10.0 mi South 4.6 mph - N/A   Mostly Cloudy
11:15 PM 53.6 °F - 30.2 °F 41% 30.19 in 7.0 mi South 6.9 mph - N/A   Mostly Cloudy
11:35 PM 51.8 °F - 30.2 °F 44% 30.19 in 7.0 mi South 8.1 mph - N/A   Overcast
11:55 PM 51.8 °F - 30.2 °F 44% 30.19 in 7.0 mi South 8.1 mph - N/A   Mostly Cloudy